Flag for Norway Weather past 2 weeks in Farsund, Norway

Now
50 °F

Cool.


Feels Like: 44 °F
Forecast: 47 / 54 °F
Wind: 14 mph from Southwest

Location: Lista Fyr

Current Time: Jun 3, 2015 at 2:06:12 AM

Latest Report: Jun 3, 2015 at 1:00 AM


Visibility: N/A

Pressure: 29.35 "Hg

Humidity: 87%

Dew point: 46 °F

Location of FarsundLocation

Historic Weather in Farsund — Graph

°F

Farsund temperature yesterday

Maximum temperature yesterday: 52 °F (at 1:00 PM)
Minimum temperature yesterday: 47 °F (at 6:00 AM)
Average temperature yesterday: 49 °F

Past Weeks' High & Low Weather Summary

 TemperatureHumidityPressure
High54 °F (May 31, 2:00 PM)98% (May 22, 4:00 PM)30.12 "Hg (May 22, 4:00 PM)
Low39 °F (May 21, 5:00 AM)63% (May 23, 11:00 AM)29.18 "Hg (May 19, 4:00 AM)
Average48 °F82%29.76 "Hg
* Reported Midnight between May 18 and May 19 — Midnight between Jun 2 and Jun 3, Farsund, Weather by CustomWeather, © 2015

Note: Actual official high and low records may vary slightly from our data, if they occured in-between our weather recording intervals... More about our weather records

Advertising

Farsund weather history for previous 24 hours

 ConditionsComfort  
Time TempWeatherWind HumidityBarometerVisibility
12:00 AM
Wed, Jun 3
50 °FCool.13 mph87%29.32 "HgN/A
11:00 PM
Tue, Jun 2
50 °FCool.13 mph87%29.32 "HgN/A
10:00 PM50 °FCool.13 mph84%29.32 "HgN/A
9:00 PM50 °FCool.14 mph85%29.29 "HgN/A
8:00 PM50 °FFog.13 mph84%29.29 "Hg4 mi
7:00 PM50 °FCool.13 mph80%29.29 "HgN/A
6:00 PM50 °FCool.12 mph81%29.29 "HgN/A
5:00 PM51 °FCool.14 mph78%29.29 "HgN/A
4:00 PM50 °FCool.14 mph78%29.29 "HgN/A
3:00 PM50 °FCool.13 mph78%29.29 "HgN/A
2:00 PM50 °FSprinkles. Overcast.13 mph77%29.29 "Hg6 mi
1:00 PM52 °FCool.12 mph75%29.29 "HgN/A
12:00 PM51 °FCool.12 mph77%29.26 "HgN/A
11:00 AM50 °FPartly sunny.13 mph78%29.26 "Hg6 mi
10:00 AM50 °FCool.16 mph93%29.26 "HgN/A
9:00 AM49 °FCool.21 mph94%29.26 "HgN/A
8:00 AM48 °FRain. Overcast.17 mph93%29.32 "Hg1 mi
7:00 AM47 °FCool.17 mph92%29.38 "HgN/A
6:00 AM47 °FCool.18 mph91%29.47 "HgN/A
5:00 AM47 °FCool.17 mph90%29.50 "HgN/A
4:00 AM48 °FCool.17 mph89%29.57 "HgN/A
3:00 AM48 °FCool.12 mph89%29.62 "HgN/A
2:00 AM48 °FCool.10 mph87%29.67 "HgN/A
Weather by CustomWeather, © 2015

See weather overviewHow to use our weather pages